Find Starlink 32139

NORAD ID: 61510 Int'l Des: 2024-183 Owner: SPXS Country: US Constellation: starlink operational
LEOCIRCULAR

当前视图

正在加载3D地球...

About Starlink 32139

Starlink 32139 (NORAD 61510) is a starlink constellation satellite (v2 mini) launched Oct 15, 2024 by SPXS of US. It operates in LEO, CIRCULAR orbit with a mass of 730.00 kg.

即将过境

Passes for default location (London). Set your location on the main map for personalized predictions.

高度历史

Loading altitude history...

两行轨道根数

1 61510U 24183B 26255.30313355 .00001717 00000-0 67071-4 0 9995
2 61510 53.1602 354.2488 0001257 91.7269 268.3877 15.31705101108245
Epoch: Sep 12, 2026 • Age: 14 hours

当前状态

高度 488.5 km
远地点 / 近地点 N/A
速度 7.62 km/s
星下点 -49.34°S, 16.36°W
发射日期 Oct 15, 2024
运行时间 1.9 years
类型 internet

技术详情

分类 Payload
质量 730.00 kg
干质量 700.00 kg
总质量 730.00 kg
长度 0.30 m
直径 4.10 m
跨度 29.00 m
形状 Box + pan
制造商 SPXS
平台类型 Starlink V2M
阶段状态 In Orbit
所有者/国家 SPXS/US

Most Searched